THORAD AGENA D DEB, 42498

Orbit data source: Space-Track

THORAD AGENA D DEB, 42498 is space debris in SSO originally from a launch on Wed, 08 Apr 1970 UTC launched from the Air Force Western Test Range (AFWTR). Debris objects in space refer to the collection of defunct objects orbiting the Earth. Examples of debris include non-operational satellites, rocket bodies, and fragments generated from explosions, collisions, or faulty payload assembly.

Loading next visibility...
Identifier
42498, 1970-025RC
Orbit
SSO
Country
Flag of USUS
Related business
Manufacturer
Unknown
Mission
Spacecraft
Bus & Motor
Unknown
Mass
Unknown
Launch date (UTC)
1970-04-08 (56 years ago)
Launch vehicle
Unknown
Launch site
Air Force Western Test Range (AFWTR)
Object type
Payload
Rocket body
Debris
Shape & HBR
Unknown shape, 0.1 m
Radar Cross Section
Medium (>0.1 m² and <1 m²)

Expand to show TLE details & history
Last TLE update: 2 days ago

TLE from 2 days ago
0 THORAD AGENA D DEB
1 42498U 70025RC  26264.36743484  .00000941  00000-0  18339-2 0  9990
2 42498 100.5036 310.3589 0168469  66.0048 295.8610 13.34056590603715
Epoch: 2026-09-21T08:49Z
TLE epoch observation values (Epoch: 2026-09-21T08:49:06.370Z)
Latitude
Longitude
177.83408°
Altitude
1,080.788 km
Speed
7.338 km/s
True Right ascension
20h 41m 26s
True Declination
0° 00' 00"
Sunlit
Object was in full shadow at epoch
Visualization orbit readout
Latitude
Unknown
Longitude
Unknown
Altitude
Unknown
Speed
Unknown
Apparent Right ascension
Unknown
Apparent Declination
Unknown
Sunlit
N/A
Visualization observer readout
Local Sidereal Time
05:33:34
Azimuth
Unknown
Elevation
Unknown
Doppler factor
Unknown
Orbital elements
Apogee altitude
1,255.335 km
Perigee altitude
1,002.396 km
Semi-major axis
7,507.002 km
Eccentricity
0.01685
Inclination
100.5036°
RAAN
310.3589°
Arg. of periapsis
66.0048°
True anomaly
294.10799°
Mean anomaly
295.861°
Eccentric anomaly
294.98608°
Mean motion
3.3369 °/min
Orbital period
107.88 mins
BSTAR
0.0018339

Documentation

Showing up to 5 results
|